START_TIME,STEP,MOV.,AL01,t_acc.,AL02,t_acc.,E37,t_acc.,H21,t_acc.
1979-07-28 12:00:33.490 ,0,0,0.,24.0,0.,24.0,1.,24.0,0.,24.0
1979-07-28 12:00:57.490 ,1,1,0.,24.0,1.,24.0,2.,24.0,0.,24.0
1979-07-28 12:01:21.490 ,1,0,0.,24.0,0.,24.0,0.,24.0,0.,24.0
1979-07-28 12:01:45.490 ,2,1,0.,24.0,0.,24.0,1.,24.0,0.,24.0
1979-07-28 12:02:09.490 ,2,0,0.,24.0,0.,24.0,2.,24.0,0.,24.0
1979-07-28 12:02:33.490 ,3,1,0.,24.0,0.,24.0,0.,24.0,0.,24.0
1979-07-28 12:02:57.490 ,3,0,0.,24.0,0.,24.0,1.,24.0,0.,24.0
1979-07-28 12:03:21.490 ,4,1,1.,24.0,0.,24.0,1.,24.0,0.,24.0
1979-07-28 12:03:45.490 ,4,0,0.,24.0,0.,24.0,0.,24.0,0.,24.0
1979-07-28 12:04:09.490 ,5,1,0.,24.0,0.,24.0,3.,24.0,0.,24.0
1979-07-28 12:04:33.490 ,5,0,0.,24.0,0.,24.0,0.,24.0,0.,24.0
1979-07-28 12:04:57.490 ,6,1,0.,24.0,0.,24.0,1.,24.0,0.,24.0
1979-07-28 12:05:21.490 ,6,0,0.,24.0,0.,24.0,0.,24.0,0.,24.0
1979-07-28 12:05:45.490 ,7,1,7.,24.0,0.,24.0,1.,24.0,0.,24.0
1979-07-28 12:06:09.480 ,7,0,28.,24.0,0.,24.0,0.,24.0,0.,24.0
1979-07-28 12:06:33.490 ,0,0,20.,24.0,0.,24.0,4.,24.0,0.,24.0
1979-07-28 12:06:57.490 ,0,0,,0,,0,,0,,0
1979-07-28 12:07:21.490 ,6,1,22.,24.0,0.,24.0,1.,24.0,0.,24.0
1979-07-28 12:07:45.490 ,6,0,0.,24.0,0.,24.0,0.,24.0,0.,24.0
1979-07-28 12:08:09.480 ,5,1,0.,24.0,0.,24.0,2.,24.0,0.,24.0
1979-07-28 12:08:33.480 ,5,0,0.,24.0,0.,24.0,2.,24.0,0.,24.0
1979-07-28 12:08:57.480 ,4,1,0.,24.0,1.,24.0,1.,24.0,0.,24.0
1979-07-28 12:09:21.480 ,4,0,0.,24.0,0.,24.0,1.,24.0,0.,24.0
1979-07-28 12:09:45.480 ,3,1,0.,24.0,0.,24.0,1.,24.0,0.,24.0
1979-07-28 12:10:09.480 ,3,0,0.,24.0,0.,24.0,1.,24.0,0.,24.0
1979-07-28 12:10:33.480 ,2,1,0.,24.0,0.,24.0,0.,24.0,0.,24.0
1979-07-28 12:10:57.480 ,2,0,0.,24.0,0.,24.0,2.,24.0,0.,24.0
1979-07-28 12:11:21.480 ,1,1,0.,24.0,0.,24.0,0.,24.0,0.,24.0
1979-07-28 12:11:45.480 ,1,0,0.,24.0,0.,24.0,4.,24.0,0.,24.0
1979-07-28 12:12:09.480 ,0,1,0.,24.0,0.,24.0,0.,24.0,0.,24.0
1979-07-28 12:12:33.480 ,0,0,0.,24.0,0.,24.0,0.,24.0,0.,24.0
1979-07-28 12:12:57.480 ,0,1,0.,24.0,0.,24.0,1.,24.0,0.,24.0
1979-07-28 12:13:21.480 ,0,0,0.,24.0,0.,24.0,0.,24.0,0.,24.0
1979-07-28 12:13:45.480 ,1,1,0.,24.0,0.,24.0,1.,24.0,0.,24.0
1979-07-28 12:14:09.480 ,1,0,0.,24.0,0.,24.0,1.,24.0,0.,24.0
1979-07-28 12:14:33.480 ,2,1,0.,24.0,0.,24.0,3.,24.0,0.,24.0
1979-07-28 12:14:57.480 ,2,0,0.,24.0,0.,24.0,0.,24.0,0.,24.0
1979-07-28 12:15:21.480 ,3,1,0.,24.0,0.,24.0,2.,24.0,0.,24.0
1979-07-28 12:15:45.480 ,3,0,0.,24.0,0.,24.0,0.,24.0,0.,24.0
1979-07-28 12:16:09.480 ,4,1,0.,24.0,0.,24.0,0.,24.0,0.,24.0
1979-07-28 12:16:33.480 ,4,0,0.,24.0,0.,24.0,0.,24.0,0.,24.0
1979-07-28 12:16:57.480 ,5,1,0.,24.0,0.,24.0,2.,24.0,0.,24.0
1979-07-28 12:17:21.480 ,5,0,0.,24.0,0.,24.0,3.,24.0,0.,24.0
1979-07-28 12:17:45.480 ,6,1,0.,24.0,0.,24.0,0.,24.0,0.,24.0
1979-07-28 12:18:09.480 ,6,0,1.,24.0,0.,24.0,1.,24.0,0.,24.0
1979-07-28 12:18:33.480 ,7,0,5.,24.0,0.,24.0,2.,24.0,0.,24.0
1979-07-28 12:18:57.480 ,7,0,34.,24.0,0.,24.0,1.,24.0,0.,24.0
1979-07-28 12:19:21.480 ,5,1,21.,24.0,0.,24.0,0.,24.0,0.,24.0
1979-07-28 12:19:45.480 ,1,1,0.,24.0,0.,24.0,1.,24.0,0.,24.0
1979-07-28 12:20:09.480 ,2,1,0.,24.0,0.,24.0,0.,24.0,0.,24.0
1979-07-28 12:20:33.480 ,6,1,0.,24.0,0.,24.0,0.,24.0,0.,24.0
1979-07-28 12:20:57.480 ,5,1,18.,24.0,0.,24.0,0.,24.0,0.,24.0
1979-07-28 12:21:21.480 ,1,1,0.,24.0,0.,24.0,0.,24.0,0.,24.0
1979-07-28 12:21:45.480 ,2,1,1.,24.0,0.,24.0,1.,24.0,0.,24.0
1979-07-28 12:22:09.480 ,6,1,0.,24.0,0.,24.0,3.,24.0,0.,24.0
1979-07-28 12:22:33.480 ,5,1,18.,24.0,0.,24.0,3.,24.0,0.,24.0
1979-07-28 12:22:57.480 ,1,1,0.,24.0,0.,24.0,0.,24.0,0.,24.0
1979-07-28 12:23:21.480 ,2,1,1.,24.0,0.,24.0,1.,24.0,0.,24.0
1979-07-28 12:23:45.480 ,6,1,1.,24.0,0.,24.0,0.,24.0,0.,24.0
1979-07-28 12:24:09.480 ,5,1,18.,24.0,0.,24.0,0.,24.0,0.,24.0
1979-07-28 12:24:33.480 ,1,1,0.,24.0,0.,24.0,1.,24.0,0.,24.0
1979-07-28 12:24:57.480 ,2,1,0.,24.0,0.,24.0,2.,24.0,0.,24.0
1979-07-28 12:25:21.480 ,6,1,0.,24.0,0.,24.0,2.,24.0,0.,24.0
1979-07-28 12:25:45.480 ,5,1,23.,24.0,0.,24.0,5.,24.0,0.,24.0
1979-07-28 12:26:09.480 ,1,1,0.,24.0,0.,24.0,0.,24.0,0.,24.0
1979-07-28 12:26:33.480 ,2,1,0.,24.0,0.,24.0,2.,24.0,0.,24.0
1979-07-28 12:26:57.480 ,6,1,0.,24.0,0.,24.0,3.,24.0,0.,24.0
1979-07-28 12:27:21.480 ,5,1,15.,24.0,0.,24.0,1.,24.0,0.,24.0
1979-07-28 12:27:45.480 ,1,1,0.,24.0,0.,24.0,2.,24.0,0.,24.0
1979-07-28 12:28:09.480 ,2,1,0.,24.0,0.,24.0,2.,24.0,0.,24.0
1979-07-28 12:28:33.480 ,6,1,1.,24.0,0.,24.0,3.,24.0,0.,24.0
1979-07-28 12:28:57.480 ,5,1,17.,24.0,0.,24.0,1.,24.0,0.,24.0
1979-07-28 12:29:21.480 ,1,1,0.,24.0,1.,24.0,1.,24.0,0.,24.0
1979-07-28 12:29:45.480 ,0,0,0.,24.0,0.,24.0,1.,24.0,0.,24.0
1979-07-28 12:30:09.480 ,0,0,0.,24.0,0.,24.0,1.,24.0,0.,24.0
1979-07-28 12:30:33.480 ,5,1,17.,24.0,0.,24.0,2.,24.0,0.,24.0
1979-07-28 12:30:57.480 ,5,0,0.,24.0,1.,24.0,2.,24.0,0.,24.0
1979-07-28 12:31:21.480 ,4,1,0.,24.0,0.,24.0,0.,24.0,0.,24.0
1979-07-28 12:31:45.480 ,4,0,0.,24.0,0.,24.0,3.,24.0,0.,24.0
1979-07-28 12:32:09.480 ,3,1,0.,24.0,0.,24.0,0.,24.0,0.,24.0
1979-07-28 12:32:33.480 ,3,0,0.,24.0,0.,24.0,0.,24.0,0.,24.0
1979-07-28 12:32:57.480 ,2,1,0.,24.0,0.,24.0,1.,24.0,0.,24.0
1979-07-28 12:33:21.480 ,2,0,0.,24.0,0.,24.0,1.,24.0,0.,24.0
1979-07-28 12:33:45.480 ,1,1,0.,24.0,0.,24.0,3.,24.0,0.,24.0
1979-07-28 12:34:09.480 ,1,0,0.,24.0,0.,24.0,0.,24.0,0.,24.0
1979-07-28 12:34:33.480 ,0,1,0.,24.0,0.,24.0,1.,24.0,0.,24.0
1979-07-28 12:34:57.480 ,0,0,0.,24.0,0.,24.0,1.,24.0,0.,24.0
1979-07-28 12:35:21.480 ,0,1,0.,24.0,0.,24.0,3.,24.0,0.,24.0
1979-07-28 12:35:45.480 ,0,0,0.,24.0,0.,24.0,2.,24.0,0.,24.0
1979-07-28 12:36:09.480 ,1,1,0.,24.0,0.,24.0,1.,24.0,0.,24.0
1979-07-28 12:36:33.480 ,1,0,0.,24.0,0.,24.0,2.,24.0,0.,24.0
1979-07-28 12:36:57.480 ,2,1,0.,24.0,0.,24.0,0.,24.0,0.,24.0
1979-07-28 12:37:21.480 ,2,0,0.,24.0,0.,24.0,5.,24.0,0.,24.0
1979-07-28 12:37:45.480 ,3,1,0.,24.0,0.,24.0,0.,24.0,0.,24.0
1979-07-28 12:38:09.480 ,3,0,0.,24.0,0.,24.0,1.,24.0,0.,24.0
1979-07-28 12:38:33.480 ,4,1,0.,24.0,0.,24.0,0.,24.0,0.,24.0
1979-07-28 12:38:57.480 ,4,0,0.,24.0,0.,24.0,0.,24.0,0.,24.0
1979-07-28 12:39:21.480 ,5,1,0.,24.0,0.,24.0,2.,24.0,0.,24.0
1979-07-28 12:39:45.480 ,5,0,0.,24.0,0.,24.0,2.,24.0,0.,24.0
1979-07-28 12:40:09.480 ,6,1,0.,24.0,0.,24.0,2.,24.0,0.,24.0
1979-07-28 12:40:33.480 ,6,0,0.,24.0,1.,24.0,0.,24.0,0.,24.0
1979-07-28 12:40:57.480 ,7,1,9.,24.0,0.,24.0,2.,24.0,0.,24.0
1979-07-28 12:41:21.480 ,7,0,21.,24.0,0.,24.0,1.,24.0,0.,24.0
1979-07-28 12:41:45.480 ,7,1,34.,24.0,0.,24.0,1.,24.0,0.,24.0
1979-07-28 12:42:09.480 ,7,0,30.,24.0,0.,24.0,1.,24.0,0.,24.0
1979-07-28 12:42:33.480 ,6,1,25.,24.0,0.,24.0,1.,24.0,0.,24.0
1979-07-28 12:42:57.480 ,6,0,1.,24.0,0.,24.0,2.,24.0,0.,24.0
1979-07-28 12:43:21.480 ,5,1,0.,24.0,0.,24.0,1.,24.0,0.,24.0
1979-07-28 12:43:45.480 ,5,0,0.,24.0,0.,24.0,2.,24.0,0.,24.0
1979-07-28 12:44:09.480 ,4,1,0.,24.0,0.,24.0,1.,24.0,0.,24.0
1979-07-28 12:44:33.480 ,4,0,0.,24.0,0.,24.0,2.,24.0,0.,24.0
1979-07-28 12:44:57.480 ,3,1,0.,24.0,0.,24.0,0.,24.0,0.,24.0
1979-07-28 12:45:21.480 ,3,0,1.,24.0,0.,24.0,2.,24.0,0.,24.0
1979-07-28 12:45:45.480 ,2,1,0.,24.0,0.,24.0,0.,24.0,0.,24.0
1979-07-28 12:46:09.480 ,2,0,1.,24.0,0.,24.0,1.,24.0,0.,24.0
1979-07-28 12:46:33.480 ,1,1,1.,24.0,0.,24.0,1.,24.0,0.,24.0
1979-07-28 12:46:57.480 ,1,0,0.,24.0,0.,24.0,2.,24.0,0.,24.0
1979-07-28 12:47:21.480 ,0,1,0.,24.0,0.,24.0,1.,24.0,0.,24.0
1979-07-28 12:47:45.480 ,0,0,0.,24.0,0.,24.0,0.,24.0,0.,24.0
1979-07-28 12:48:09.480 ,0,1,0.,24.0,0.,24.0,2.,24.0,0.,24.0
1979-07-28 12:48:33.480 ,0,0,0.,24.0,0.,24.0,2.,24.0,0.,24.0
1979-07-28 12:48:57.480 ,1,1,0.,24.0,0.,24.0,1.,24.0,0.,24.0
1979-07-28 12:49:21.480 ,1,0,0.,24.0,0.,24.0,0.,24.0,0.,24.0
1979-07-28 12:49:45.480 ,2,1,0.,24.0,0.,24.0,0.,24.0,0.,24.0
1979-07-28 12:50:09.480 ,2,0,0.,24.0,0.,24.0,0.,24.0,0.,24.0
1979-07-28 12:50:33.480 ,3,1,1.,24.0,0.,24.0,0.,24.0,0.,24.0
1979-07-28 12:50:57.480 ,3,0,0.,24.0,0.,24.0,0.,24.0,0.,24.0
1979-07-28 12:51:21.480 ,4,1,0.,24.0,0.,24.0,1.,24.0,0.,24.0
1979-07-28 12:51:45.480 ,4,0,0.,24.0,0.,24.0,3.,24.0,0.,24.0
1979-07-28 12:52:09.480 ,5,1,0.,24.0,0.,24.0,0.,24.0,0.,24.0
1979-07-28 12:52:33.480 ,5,0,1.,24.0,0.,24.0,0.,24.0,0.,24.0
1979-07-28 12:52:57.480 ,6,1,0.,24.0,0.,24.0,1.,24.0,0.,24.0
1979-07-28 12:53:21.480 ,6,0,0.,24.0,0.,24.0,1.,24.0,0.,24.0
1979-07-28 12:53:45.480 ,7,1,4.,24.0,0.,24.0,1.,24.0,0.,24.0
1979-07-28 12:54:09.480 ,7,0,40.,24.0,0.,24.0,0.,24.0,0.,24.0
1979-07-28 12:54:33.480 ,7,1,21.,24.0,0.,24.0,0.,24.0,0.,24.0
1979-07-28 12:54:57.480 ,7,0,24.,24.0,0.,24.0,1.,24.0,0.,24.0
1979-07-28 12:55:21.480 ,6,1,24.,24.0,1.,24.0,0.,24.0,0.,24.0
1979-07-28 12:55:45.480 ,6,0,0.,24.0,0.,24.0,1.,24.0,0.,24.0
1979-07-28 12:56:09.480 ,5,1,0.,24.0,1.,24.0,0.,24.0,0.,24.0
1979-07-28 12:56:33.480 ,5,0,0.,24.0,0.,24.0,0.,24.0,0.,24.0
1979-07-28 12:56:57.480 ,4,1,0.,24.0,0.,24.0,1.,24.0,0.,24.0
1979-07-28 12:57:21.480 ,4,0,0.,24.0,0.,24.0,2.,24.0,0.,24.0
1979-07-28 12:57:45.480 ,3,1,0.,24.0,0.,24.0,1.,24.0,0.,24.0
1979-07-28 12:58:09.480 ,3,0,0.,24.0,0.,24.0,2.,24.0,0.,24.0
1979-07-28 12:58:33.480 ,2,1,0.,24.0,1.,24.0,1.,24.0,0.,24.0
1979-07-28 12:58:57.480 ,2,0,0.,24.0,0.,24.0,0.,24.0,0.,24.0
1979-07-28 12:59:21.480 ,1,1,0.,24.0,0.,24.0,1.,24.0,0.,24.0
1979-07-28 12:59:45.480 ,1,0,0.,24.0,0.,24.0,0.,24.0,0.,24.0
1979-07-28 13:00:09.480 ,0,1,1.,24.0,0.,24.0,0.,24.0,0.,24.0
1979-07-28 13:00:33.480 ,0,0,0.,24.0,0.,24.0,1.,24.0,0.,24.0
1979-07-28 13:00:57.480 ,0,1,0.,24.0,0.,24.0,1.,24.0,0.,24.0
1979-07-28 13:01:21.480 ,0,0,0.,24.0,0.,24.0,0.,24.0,0.,24.0
1979-07-28 13:01:45.480 ,1,1,0.,24.0,0.,24.0,2.,24.0,0.,24.0
1979-07-28 13:02:09.480 ,1,0,0.,24.0,0.,24.0,2.,24.0,0.,24.0
1979-07-28 13:02:33.480 ,2,1,0.,24.0,0.,24.0,3.,24.0,0.,24.0
1979-07-28 13:02:57.480 ,2,0,0.,24.0,0.,24.0,1.,24.0,0.,24.0
1979-07-28 13:03:21.480 ,3,1,0.,24.0,0.,24.0,1.,24.0,0.,24.0
1979-07-28 13:03:45.480 ,3,0,0.,24.0,0.,24.0,1.,24.0,0.,24.0
1979-07-28 13:04:09.480 ,4,1,0.,24.0,0.,24.0,2.,24.0,0.,24.0
1979-07-28 13:04:33.480 ,4,0,0.,24.0,0.,24.0,1.,24.0,0.,24.0
1979-07-28 13:04:57.480 ,5,1,0.,24.0,0.,24.0,1.,24.0,0.,24.0
1979-07-28 13:05:21.480 ,5,0,0.,24.0,0.,24.0,2.,24.0,0.,24.0
1979-07-28 13:05:45.480 ,6,1,0.,24.0,0.,24.0,0.,24.0,0.,24.0
1979-07-28 13:06:09.480 ,6,0,0.,24.0,0.,24.0,0.,24.0,0.,24.0
1979-07-28 13:06:33.480 ,7,0,7.,24.0,0.,24.0,2.,24.0,0.,24.0
1979-07-28 13:06:57.480 ,7,0,39.,24.0,0.,24.0,0.,24.0,0.,24.0
1979-07-28 13:07:21.480 ,5,1,22.,24.0,0.,24.0,0.,24.0,0.,24.0
1979-07-28 13:07:45.480 ,1,1,0.,24.0,0.,24.0,0.,24.0,0.,24.0
1979-07-28 13:08:09.480 ,2,1,0.,24.0,0.,24.0,0.,24.0,0.,24.0
1979-07-28 13:08:33.480 ,6,1,0.,24.0,0.,24.0,1.,24.0,0.,24.0
1979-07-28 13:08:57.480 ,5,1,14.,24.0,0.,24.0,2.,24.0,0.,24.0
1979-07-28 13:09:21.480 ,1,1,0.,24.0,1.,24.0,1.,24.0,0.,24.0
1979-07-28 13:09:45.480 ,2,1,0.,24.0,0.,24.0,2.,24.0,0.,24.0
1979-07-28 13:10:09.480 ,6,1,0.,24.0,0.,24.0,0.,24.0,0.,24.0
1979-07-28 13:10:33.480 ,5,1,13.,24.0,0.,24.0,1.,24.0,0.,24.0
1979-07-28 13:10:57.480 ,1,1,0.,24.0,0.,24.0,0.,24.0,0.,24.0
1979-07-28 13:11:21.480 ,2,1,0.,24.0,0.,24.0,1.,24.0,0.,24.0
1979-07-28 13:11:45.480 ,6,1,0.,24.0,0.,24.0,1.,24.0,0.,24.0
1979-07-28 13:12:09.480 ,5,1,15.,24.0,0.,24.0,0.,24.0,0.,24.0
1979-07-28 13:12:33.480 ,1,1,0.,24.0,0.,24.0,0.,24.0,0.,24.0
1979-07-28 13:12:57.480 ,2,1,0.,24.0,0.,24.0,4.,24.0,0.,24.0
1979-07-28 13:13:21.480 ,6,1,0.,24.0,0.,24.0,0.,24.0,0.,24.0
1979-07-28 13:13:45.480 ,5,1,15.,24.0,0.,24.0,3.,24.0,0.,24.0
1979-07-28 13:14:09.480 ,1,1,0.,24.0,0.,24.0,1.,24.0,0.,24.0
1979-07-28 13:14:33.480 ,2,1,0.,24.0,0.,24.0,0.,24.0,0.,24.0
1979-07-28 13:14:57.480 ,6,1,0.,24.0,0.,24.0,3.,24.0,0.,24.0
1979-07-28 13:15:21.480 ,5,1,21.,24.0,0.,24.0,1.,24.0,0.,24.0
1979-07-28 13:15:45.480 ,1,1,0.,24.0,0.,24.0,1.,24.0,0.,24.0
1979-07-28 13:16:09.480 ,2,1,0.,24.0,0.,24.0,0.,24.0,0.,24.0
1979-07-28 13:16:33.480 ,6,1,0.,24.0,1.,24.0,1.,24.0,0.,24.0
1979-07-28 13:16:57.480 ,5,1,16.,24.0,0.,24.0,3.,24.0,0.,24.0
1979-07-28 13:17:21.480 ,1,1,1.,24.0,0.,24.0,2.,24.0,0.,24.0
1979-07-28 13:17:45.480 ,0,0,0.,24.0,0.,24.0,2.,24.0,0.,24.0
1979-07-28 13:18:09.480 ,0,0,0.,24.0,0.,24.0,1.,24.0,0.,24.0
1979-07-28 13:18:33.480 ,5,1,14.,24.0,0.,24.0,1.,24.0,0.,24.0
1979-07-28 13:18:57.480 ,5,0,0.,24.0,0.,24.0,0.,24.0,0.,24.0
1979-07-28 13:19:21.480 ,4,1,0.,24.0,0.,24.0,1.,24.0,0.,24.0
1979-07-28 13:19:45.480 ,4,0,0.,24.0,0.,24.0,2.,24.0,0.,24.0
1979-07-28 13:20:09.480 ,3,1,0.,24.0,0.,24.0,3.,24.0,0.,24.0
1979-07-28 13:20:33.480 ,3,0,0.,24.0,0.,24.0,0.,24.0,0.,24.0
1979-07-28 13:20:57.480 ,2,1,0.,24.0,0.,24.0,1.,24.0,0.,24.0
1979-07-28 13:21:21.480 ,2,0,0.,24.0,0.,24.0,3.,24.0,0.,24.0
1979-07-28 13:21:45.480 ,1,1,0.,24.0,0.,24.0,2.,24.0,0.,24.0
1979-07-28 13:22:09.480 ,1,0,0.,24.0,0.,24.0,0.,24.0,0.,24.0
1979-07-28 13:22:33.480 ,0,1,0.,24.0,0.,24.0,0.,24.0,0.,24.0
1979-07-28 13:22:57.480 ,0,0,0.,24.0,0.,24.0,1.,24.0,0.,24.0
1979-07-28 13:23:21.480 ,0,1,0.,24.0,0.,24.0,1.,24.0,0.,24.0
1979-07-28 13:23:45.480 ,0,0,0.,24.0,0.,24.0,4.,24.0,0.,24.0
1979-07-28 13:24:09.480 ,1,1,0.,24.0,0.,24.0,2.,24.0,0.,24.0
1979-07-28 13:24:33.480 ,1,0,0.,24.0,0.,24.0,1.,24.0,0.,24.0
1979-07-28 13:24:57.480 ,2,1,0.,24.0,0.,24.0,1.,24.0,0.,24.0
1979-07-28 13:25:21.480 ,2,0,0.,24.0,0.,24.0,2.,24.0,0.,24.0
1979-07-28 13:25:45.480 ,3,1,0.,24.0,0.,24.0,0.,24.0,0.,24.0
1979-07-28 13:26:09.480 ,3,0,0.,24.0,0.,24.0,0.,24.0,0.,24.0
1979-07-28 13:26:33.480 ,4,1,0.,24.0,0.,24.0,1.,24.0,0.,24.0
1979-07-28 13:26:57.480 ,4,0,0.,24.0,0.,24.0,1.,24.0,0.,24.0
1979-07-28 13:27:21.480 ,5,1,0.,24.0,0.,24.0,1.,24.0,0.,24.0
1979-07-28 13:27:45.480 ,5,0,0.,24.0,0.,24.0,2.,24.0,0.,24.0
1979-07-28 13:28:09.480 ,6,1,0.,24.0,0.,24.0,1.,24.0,0.,24.0
1979-07-28 13:28:33.480 ,6,0,0.,24.0,0.,24.0,2.,24.0,0.,24.0
1979-07-28 13:28:57.480 ,7,1,9.,24.0,0.,24.0,2.,24.0,0.,24.0
1979-07-28 13:29:21.480 ,7,0,26.,24.0,0.,24.0,2.,24.0,0.,24.0
1979-07-28 13:29:45.480 ,7,1,38.,24.0,0.,24.0,3.,24.0,0.,24.0
1979-07-28 13:30:09.480 ,7,0,41.,24.0,0.,24.0,1.,24.0,0.,24.0
1979-07-28 13:30:33.480 ,6,1,21.,24.0,0.,24.0,0.,24.0,0.,24.0
1979-07-28 13:30:57.480 ,6,0,0.,24.0,0.,24.0,1.,24.0,0.,24.0
1979-07-28 13:31:21.480 ,5,1,0.,24.0,0.,24.0,1.,24.0,0.,24.0
1979-07-28 13:31:45.480 ,5,0,0.,24.0,0.,24.0,2.,24.0,0.,24.0
1979-07-28 13:32:09.480 ,4,1,0.,24.0,0.,24.0,2.,24.0,0.,24.0
1979-07-28 13:32:33.480 ,4,0,0.,24.0,0.,24.0,2.,24.0,0.,24.0
1979-07-28 13:32:57.480 ,3,1,1.,24.0,0.,24.0,1.,24.0,0.,24.0
1979-07-28 13:33:21.480 ,3,0,0.,24.0,0.,24.0,2.,24.0,0.,24.0
1979-07-28 13:33:45.480 ,2,1,0.,24.0,0.,24.0,2.,24.0,0.,24.0
1979-07-28 13:34:09.480 ,2,0,0.,24.0,0.,24.0,3.,24.0,0.,24.0
1979-07-28 13:34:33.480 ,1,1,0.,24.0,1.,24.0,3.,24.0,0.,24.0
1979-07-28 13:34:57.480 ,1,0,0.,24.0,0.,24.0,2.,24.0,0.,24.0
1979-07-28 13:35:21.480 ,0,1,0.,24.0,0.,24.0,0.,24.0,0.,24.0
1979-07-28 13:35:45.480 ,0,0,0.,24.0,0.,24.0,1.,24.0,0.,24.0
1979-07-28 13:36:09.480 ,0,1,0.,24.0,0.,24.0,3.,24.0,0.,24.0
1979-07-28 13:36:33.480 ,0,0,0.,24.0,0.,24.0,1.,24.0,0.,24.0
1979-07-28 13:36:57.480 ,1,1,0.,24.0,0.,24.0,2.,24.0,0.,24.0
1979-07-28 13:37:21.480 ,1,0,0.,24.0,0.,24.0,0.,24.0,0.,24.0
1979-07-28 13:37:45.480 ,2,1,0.,24.0,0.,24.0,1.,24.0,0.,24.0
1979-07-28 13:38:09.480 ,2,0,0.,24.0,1.,24.0,2.,24.0,0.,24.0
1979-07-28 13:38:33.480 ,3,1,0.,24.0,0.,24.0,2.,24.0,0.,24.0
1979-07-28 13:38:57.480 ,3,0,1.,24.0,0.,24.0,1.,24.0,0.,24.0
1979-07-28 13:39:21.480 ,4,1,0.,24.0,0.,24.0,3.,24.0,0.,24.0
1979-07-28 13:39:45.480 ,4,0,0.,24.0,0.,24.0,2.,24.0,0.,24.0
1979-07-28 13:40:09.480 ,5,1,1.,24.0,0.,24.0,2.,24.0,0.,24.0
1979-07-28 13:40:33.480 ,5,0,0.,24.0,0.,24.0,1.,24.0,0.,24.0
1979-07-28 13:40:57.480 ,6,1,0.,24.0,0.,24.0,1.,24.0,0.,24.0
1979-07-28 13:41:21.480 ,6,0,1.,24.0,0.,24.0,1.,24.0,0.,24.0
1979-07-28 13:41:45.480 ,7,1,9.,24.0,0.,24.0,2.,24.0,0.,24.0
1979-07-28 13:42:09.480 ,7,0,37.,24.0,0.,24.0,2.,24.0,0.,24.0
1979-07-28 13:42:33.480 ,7,1,29.,24.0,0.,24.0,2.,24.0,0.,24.0
1979-07-28 13:42:57.480 ,7,0,30.,24.0,0.,24.0,1.,24.0,0.,24.0
1979-07-28 13:43:21.480 ,6,1,21.,24.0,0.,24.0,2.,24.0,0.,24.0
1979-07-28 13:43:45.480 ,6,0,0.,24.0,0.,24.0,0.,24.0,0.,24.0
1979-07-28 13:44:09.480 ,5,1,0.,24.0,0.,24.0,5.,24.0,0.,24.0
1979-07-28 13:44:33.480 ,5,0,0.,24.0,0.,24.0,3.,24.0,0.,24.0
1979-07-28 13:44:57.480 ,4,1,0.,24.0,0.,24.0,3.,24.0,0.,24.0
1979-07-28 13:45:21.480 ,4,0,0.,24.0,0.,24.0,2.,24.0,0.,24.0
1979-07-28 13:45:45.480 ,3,1,0.,24.0,0.,24.0,3.,24.0,0.,24.0
1979-07-28 13:46:09.480 ,3,0,0.,24.0,0.,24.0,3.,24.0,0.,24.0
1979-07-28 13:46:33.480 ,2,1,0.,24.0,0.,24.0,1.,24.0,0.,24.0
1979-07-28 13:46:57.480 ,2,0,0.,24.0,0.,24.0,5.,24.0,0.,24.0
1979-07-28 13:47:21.480 ,1,1,0.,24.0,0.,24.0,2.,24.0,0.,24.0
1979-07-28 13:47:45.480 ,1,0,0.,24.0,0.,24.0,1.,24.0,0.,24.0
1979-07-28 13:48:09.480 ,0,1,0.,24.0,0.,24.0,2.,24.0,0.,24.0
1979-07-28 13:48:33.480 ,0,0,0.,24.0,0.,24.0,1.,24.0,0.,24.0
1979-07-28 13:48:57.480 ,0,1,0.,24.0,0.,24.0,2.,24.0,0.,24.0
1979-07-28 13:49:21.480 ,0,0,0.,24.0,0.,24.0,5.,24.0,0.,24.0
1979-07-28 13:49:45.480 ,1,1,0.,24.0,0.,24.0,0.,24.0,0.,24.0
1979-07-28 13:50:09.480 ,1,0,1.,24.0,0.,24.0,2.,24.0,0.,24.0
1979-07-28 13:50:33.480 ,2,1,0.,24.0,0.,24.0,1.,24.0,0.,24.0
1979-07-28 13:50:57.480 ,2,0,0.,24.0,0.,24.0,1.,24.0,0.,24.0
1979-07-28 13:51:21.480 ,3,1,0.,24.0,0.,24.0,1.,24.0,0.,24.0
1979-07-28 13:51:45.480 ,3,0,0.,24.0,0.,24.0,2.,24.0,0.,24.0
1979-07-28 13:52:09.480 ,4,1,0.,24.0,0.,24.0,4.,24.0,0.,24.0
1979-07-28 13:52:33.480 ,4,0,0.,24.0,0.,24.0,2.,24.0,0.,24.0
1979-07-28 13:52:57.480 ,5,1,0.,24.0,0.,24.0,0.,24.0,0.,24.0
1979-07-28 13:53:21.480 ,5,0,0.,24.0,0.,24.0,2.,24.0,0.,24.0
1979-07-28 13:53:45.480 ,6,1,0.,24.0,0.,24.0,3.,24.0,0.,24.0
1979-07-28 13:54:09.480 ,6,0,0.,24.0,0.,24.0,0.,24.0,0.,24.0
1979-07-28 13:54:33.480 ,7,0,6.,24.0,0.,24.0,0.,24.0,0.,24.0
1979-07-28 13:54:57.480 ,7,0,30.,24.0,0.,24.0,3.,24.0,0.,24.0
1979-07-28 13:55:21.480 ,5,1,16.,24.0,0.,24.0,1.,24.0,0.,24.0
1979-07-28 13:55:45.480 ,1,1,0.,24.0,0.,24.0,1.,24.0,0.,24.0
1979-07-28 13:56:09.480 ,2,1,0.,24.0,0.,24.0,1.,24.0,0.,24.0
1979-07-28 13:56:33.480 ,6,1,0.,24.0,0.,24.0,3.,24.0,0.,24.0
1979-07-28 13:56:57.480 ,5,1,21.,24.0,0.,24.0,0.,24.0,0.,24.0
1979-07-28 13:57:21.480 ,1,1,0.,24.0,0.,24.0,1.,24.0,0.,24.0
1979-07-28 13:57:45.480 ,2,1,0.,24.0,0.,24.0,1.,24.0,0.,24.0
1979-07-28 13:58:09.480 ,6,1,0.,24.0,0.,24.0,3.,24.0,0.,24.0
1979-07-28 13:58:33.480 ,5,1,16.,24.0,0.,24.0,1.,24.0,0.,24.0
1979-07-28 13:58:57.480 ,1,1,0.,24.0,0.,24.0,1.,24.0,0.,24.0
1979-07-28 13:59:21.480 ,2,1,0.,24.0,0.,24.0,4.,24.0,0.,24.0
1979-07-28 13:59:45.480 ,6,1,0.,24.0,0.,24.0,1.,24.0,0.,24.0
1979-07-28 14:00:09.480 ,5,1,16.,24.0,0.,24.0,6.,24.0,0.,24.0
1979-07-28 14:00:33.480 ,1,1,0.,24.0,0.,24.0,2.,24.0,0.,24.0
1979-07-28 14:00:57.480 ,2,1,0.,24.0,0.,24.0,2.,24.0,0.,24.0
1979-07-28 14:01:21.480 ,6,1,0.,24.0,0.,24.0,2.,24.0,0.,24.0
1979-07-28 14:01:45.480 ,5,1,21.,24.0,0.,24.0,2.,24.0,0.,24.0
1979-07-28 14:02:09.480 ,1,1,0.,24.0,0.,24.0,0.,24.0,0.,24.0
1979-07-28 14:02:33.480 ,2,1,0.,24.0,0.,24.0,2.,24.0,0.,24.0
1979-07-28 14:02:57.480 ,6,1,0.,24.0,0.,24.0,3.,24.0,0.,24.0
1979-07-28 14:03:21.480 ,0,0,,0,,0,,0,,0
1979-07-28 14:03:45.480 ,0,0,,0,,0,,0,,0
1979-07-28 14:05:30.480 ,0,0,0.,24.0,0.,24.0,2.,24.0,0.,24.0
1979-07-28 14:05:45.480 ,0,0,0.,24.0,0.,24.0,0.,24.0,0.,24.0
1979-07-28 14:06:09.480 ,0,0,0.,24.0,0.,24.0,1.,24.0,0.,24.0
1979-07-28 14:06:33.480 ,5,1,15.,24.0,0.,24.0,2.,24.0,0.,24.0
1979-07-28 14:06:57.480 ,5,0,0.,24.0,0.,24.0,1.,24.0,0.,24.0
1979-07-28 14:07:21.480 ,4,1,0.,24.0,2.,24.0,1.,24.0,0.,24.0
1979-07-28 14:07:45.480 ,4,0,0.,24.0,0.,24.0,0.,24.0,0.,24.0
1979-07-28 14:08:09.480 ,3,1,0.,24.0,0.,24.0,0.,24.0,0.,24.0
1979-07-28 14:08:33.480 ,3,0,0.,24.0,0.,24.0,1.,24.0,0.,24.0
1979-07-28 14:08:57.480 ,2,1,0.,24.0,0.,24.0,0.,24.0,0.,24.0
1979-07-28 14:09:21.480 ,2,0,1.,24.0,0.,24.0,0.,24.0,0.,24.0
1979-07-28 14:09:45.480 ,1,1,0.,24.0,0.,24.0,2.,24.0,0.,24.0
1979-07-28 14:10:09.480 ,1,0,0.,24.0,0.,24.0,7.,24.0,0.,24.0
1979-07-28 14:10:33.480 ,0,1,1.,24.0,0.,24.0,0.,24.0,0.,24.0
1979-07-28 14:10:57.480 ,0,0,0.,24.0,0.,24.0,5.,24.0,0.,24.0
1979-07-28 14:11:21.480 ,0,1,0.,24.0,0.,24.0,3.,24.0,0.,24.0
1979-07-28 14:11:45.480 ,0,0,0.,24.0,0.,24.0,0.,24.0,0.,24.0
1979-07-28 14:12:09.480 ,1,1,0.,24.0,0.,24.0,2.,24.0,0.,24.0
1979-07-28 14:12:33.480 ,1,0,0.,24.0,0.,24.0,1.,24.0,0.,24.0
1979-07-28 14:12:57.480 ,2,1,0.,24.0,0.,24.0,3.,24.0,0.,24.0
1979-07-28 14:13:21.480 ,2,0,0.,24.0,0.,24.0,1.,24.0,0.,24.0
1979-07-28 14:13:45.480 ,3,1,0.,24.0,0.,24.0,1.,24.0,0.,24.0
1979-07-28 14:14:09.480 ,3,0,0.,24.0,0.,24.0,1.,24.0,0.,24.0
1979-07-28 14:14:33.480 ,4,1,1.,24.0,0.,24.0,1.,24.0,0.,24.0
1979-07-28 14:14:57.480 ,4,0,0.,24.0,0.,24.0,1.,24.0,0.,24.0
1979-07-28 14:15:21.480 ,5,1,0.,24.0,0.,24.0,2.,24.0,0.,24.0
1979-07-28 14:15:45.480 ,5,0,0.,24.0,0.,24.0,1.,24.0,0.,24.0
1979-07-28 14:16:09.480 ,6,1,0.,24.0,0.,24.0,1.,24.0,0.,24.0
1979-07-28 14:16:33.480 ,6,0,0.,24.0,0.,24.0,2.,24.0,0.,24.0
1979-07-28 14:16:57.480 ,7,1,10.,24.0,0.,24.0,3.,24.0,0.,24.0
1979-07-28 14:17:21.480 ,7,0,28.,24.0,0.,24.0,1.,24.0,0.,24.0
1979-07-28 14:17:45.480 ,7,1,26.,24.0,0.,24.0,2.,24.0,0.,24.0
1979-07-28 14:18:09.480 ,7,0,18.,24.0,0.,24.0,3.,24.0,0.,24.0
1979-07-28 14:18:33.480 ,6,1,25.,24.0,0.,24.0,1.,24.0,0.,24.0
1979-07-28 14:18:57.480 ,6,0,0.,24.0,0.,24.0,2.,24.0,0.,24.0
1979-07-28 14:19:21.480 ,5,1,1.,24.0,0.,24.0,2.,24.0,0.,24.0
1979-07-28 14:19:45.480 ,5,0,0.,24.0,0.,24.0,3.,24.0,0.,24.0
1979-07-28 14:20:09.480 ,4,1,0.,24.0,0.,24.0,3.,24.0,0.,24.0
1979-07-28 14:20:33.480 ,4,0,0.,24.0,0.,24.0,2.,24.0,0.,24.0
1979-07-28 14:20:57.480 ,3,1,0.,24.0,0.,24.0,2.,24.0,0.,24.0
1979-07-28 14:21:21.480 ,3,0,0.,24.0,0.,24.0,0.,24.0,0.,24.0
1979-07-28 14:21:45.480 ,2,1,1.,24.0,0.,24.0,1.,24.0,0.,24.0
1979-07-28 14:22:09.480 ,2,0,0.,24.0,0.,24.0,1.,24.0,0.,24.0
1979-07-28 14:22:33.480 ,1,1,0.,24.0,0.,24.0,0.,24.0,0.,24.0
1979-07-28 14:22:57.480 ,1,0,0.,24.0,0.,24.0,2.,24.0,0.,24.0
1979-07-28 14:23:21.480 ,0,1,0.,24.0,0.,24.0,1.,24.0,0.,24.0
1979-07-28 14:23:45.480 ,0,0,0.,24.0,0.,24.0,3.,24.0,0.,24.0
1979-07-28 14:24:09.480 ,0,1,0.,24.0,0.,24.0,2.,24.0,0.,24.0
1979-07-28 14:24:33.480 ,0,0,0.,24.0,0.,24.0,3.,24.0,0.,24.0
1979-07-28 14:24:57.480 ,1,1,0.,24.0,0.,24.0,2.,24.0,0.,24.0
1979-07-28 14:25:21.480 ,1,0,0.,24.0,0.,24.0,3.,24.0,0.,24.0
1979-07-28 14:25:45.480 ,2,1,0.,24.0,0.,24.0,1.,24.0,0.,24.0
1979-07-28 14:26:09.480 ,2,0,0.,24.0,0.,24.0,3.,24.0,0.,24.0
1979-07-28 14:26:33.480 ,3,1,0.,24.0,0.,24.0,2.,24.0,0.,24.0
1979-07-28 14:26:57.480 ,3,0,0.,24.0,0.,24.0,1.,24.0,0.,24.0
1979-07-28 14:27:21.480 ,4,1,1.,24.0,0.,24.0,0.,24.0,0.,24.0
1979-07-28 14:27:45.480 ,4,0,0.,24.0,0.,24.0,1.,24.0,0.,24.0
1979-07-28 14:28:09.480 ,5,1,0.,24.0,0.,24.0,0.,24.0,0.,24.0
1979-07-28 14:28:33.480 ,5,0,0.,24.0,0.,24.0,0.,24.0,0.,24.0
1979-07-28 14:28:57.480 ,6,1,0.,24.0,1.,24.0,1.,24.0,0.,24.0
1979-07-28 14:29:21.480 ,6,0,0.,24.0,0.,24.0,2.,24.0,0.,24.0
1979-07-28 14:29:45.480 ,7,1,12.,24.0,0.,24.0,0.,24.0,0.,24.0
1979-07-28 14:30:09.480 ,7,0,26.,24.0,0.,24.0,4.,24.0,0.,24.0
1979-07-28 14:30:33.480 ,7,1,36.,24.0,0.,24.0,1.,24.0,0.,24.0
1979-07-28 14:30:57.480 ,7,0,40.,24.0,0.,24.0,0.,24.0,0.,24.0
1979-07-28 14:31:21.480 ,6,1,18.,24.0,0.,24.0,2.,24.0,0.,24.0
1979-07-28 14:31:45.480 ,6,0,0.,24.0,0.,24.0,2.,24.0,0.,24.0
1979-07-28 14:32:09.480 ,5,1,0.,24.0,0.,24.0,1.,24.0,0.,24.0
1979-07-28 14:32:33.480 ,5,0,0.,24.0,0.,24.0,5.,24.0,0.,24.0
1979-07-28 14:32:57.480 ,4,1,0.,24.0,0.,24.0,2.,24.0,0.,24.0
1979-07-28 14:33:21.480 ,4,0,1.,24.0,0.,24.0,2.,24.0,0.,24.0
1979-07-28 14:33:45.480 ,3,1,0.,24.0,0.,24.0,2.,24.0,0.,24.0
1979-07-28 14:34:09.480 ,3,0,0.,24.0,0.,24.0,0.,24.0,0.,24.0
1979-07-28 14:34:33.480 ,2,1,0.,24.0,0.,24.0,2.,24.0,0.,24.0
1979-07-28 14:34:57.480 ,2,0,1.,24.0,0.,24.0,1.,24.0,0.,24.0
1979-07-28 14:35:21.480 ,1,1,0.,24.0,0.,24.0,2.,24.0,0.,24.0
1979-07-28 14:35:45.480 ,1,0,0.,24.0,0.,24.0,4.,24.0,0.,24.0